Volver al catálogo

CZ-2C DEB

ActivoPO
NORAD 40288·DEBRIS·🇨🇳 China

Lanzado Oct 27, 2014 desde Jiuquan Satellite Launch Center

Loading…

Próximos Pases (próximas 24 horas)

TLE

ActualizadoSource: Space-Track

Época: Sep 14, 2026, 13:19 UTC

1 40288U 14066C   26257.55488343  .00001213  00000-0  40470-3 0  9996
2 40288  97.9738  10.7081 0155387 294.3152  64.1874 14.32608135617039

Sigue CZ-2C DEB en tiempo real con AllMySat

Download on the App Store